Home > Weather > Ras al-Khaimah > Past weeks

Flag for United Arab Emirates Past Weather in Ras al-Khaimah, Ras al-Khaimah, United Arab Emirates — Yesterday and Last 2 Weeks

Now
99 °F

Clear.


Feels Like: 101 °F
Forecast: 90 / 107 °F
Wind: 5 mph from North

Location: Ras Al Khaimah International Airport

Current Time: Jun 28, 2016 at 8:55:55 PM

Latest Report: Jun 28, 2016 at 8:00 PM


Visibility: 10 mi

Pressure: 29.45 "Hg

Humidity: 33%

Dew Point: 64 °F

Location of Ras al-KhaimahLocation

Past Weather in Ras al-Khaimah — Graph

°F

Ras al-Khaimah Temperature Yesterday

Maximum temperature yesterday: 109 °F (at 1:00 PM)
Minimum temperature yesterday: 82 °F (at 2:00 AM)
Average temperature yesterday: 95 °F

High & Low Weather Summary for the Past Weeks

 TemperatureHumidityPressure
High117 °F (Jun 22, 1:00 PM)84% (Jun 15, 6:00 AM)29.65 "Hg (Jun 15, 6:00 AM)
Low73 °F (Jun 16, 5:00 AM)3% (Jun 22, 1:00 PM)29.33 "Hg (Jun 14, 6:00 PM)
Average94 °F37%29.50 "Hg
* Reported Jun 13 7:00 PM — Jun 28 7:00 PM, Ras al-Khaimah, Weather by CustomWeather, © 2016

Note: Actual official high and low records may vary slightly from our data, if they occured in-between our weather recording intervals... More about our weather records

Advertising

Ras al-Khaimah Weather History for the Previous 24 Hours

Scroll right to see more
 ConditionsComfort  
Time TempWeatherWind HumidityBarometerVisibility
7:00 PM
Tue, Jun 28
104 °FSunny.6 mph28%29.42 "Hg10 mi
6:00 PM109 °FSunny.14 mph19%29.42 "Hg10 mi
5:00 PM108 °FSunny.15 mph20%29.42 "Hg10 mi
4:00 PM108 °FSunny.10 mph20%29.42 "Hg10 mi
3:00 PM108 °FSunny.10 mph23%29.42 "Hg10 mi
2:00 PM106 °FSunny.12 mph25%29.45 "Hg10 mi
1:00 PM104 °FSunny.12 mph29%29.45 "Hg10 mi
12:00 PM102 °FSunny.7 mph37%29.47 "Hg10 mi
11:00 AM102 °FSunny.10 mph37%29.47 "Hg10 mi
10:00 AM99 °FSunny.10 mph44%29.47 "Hg10 mi
9:00 AM97 °FSunny.8 mph37%29.45 "Hg10 mi
8:00 AM93 °FSmoke.1 mph39%29.45 "HgN/A
7:00 AM88 °FClear.7 mph35%29.45 "Hg4 mi
6:00 AM97 °FClear.12 mph18%29.42 "Hg4 mi
5:00 AM81 °FClear.12 mph39%29.42 "Hg10 mi
4:00 AM82 °FClear.3 mph40%29.42 "Hg10 mi
3:00 AM82 °FClear.2 mph42%29.42 "Hg10 mi
2:00 AM82 °FClear.2 mph45%29.42 "Hg10 mi
1:00 AM82 °FClear.2 mph42%29.42 "Hg10 mi
12:00 AM84 °FClear.2 mph40%29.45 "Hg10 mi
11:00 PM
Mon, Jun 27
86 °FClear.2 mph38%29.45 "Hg10 mi
10:00 PM91 °FClear.6 mph30%29.42 "Hg10 mi
8:00 PM95 °FClear.3 mph25%29.39 "Hg10 mi
Weather by CustomWeather, © 2016

See weather overviewHow to use our weather pages